Location: *
(51.4660°N, 0.3360°W)
Time: 14:21:19
(UTC+00:00)

In-Cosmos 22 - Pass Details

Date: 19 September 2019
Orbit: 785 x 876 km, 81.2° (Epoch: 18 October)

Event Time Altitude Azimuth Distance (km) Brightness Sun altitude
Rises 19:21:25 0° 348° (NNW) 3,302 7.7 -12.1°
Reaches altitude 10° 19:23:48 10° 351° (N) 2,376 6.9 -12.5°
Maximum altitude 19:29:09 70° 75° (ENE) 857 4.1 -13.3°
Drops below altitude 10° 19:34:34 10° 160° (SSE) 2,409 6.2 -14.1°
Enters shadow 19:35:23 - 161° (SSE) 2,725 6.5 -14.2°
